www.pogodaiklimat.ru

Погода и климат >> Архив погоды >> Великобритания >> Чарлвуд


ПОГОДА в Чарлвуде

  • Прогноз погоды в Чарлвуде
  • Монитор погоды в Чарлвуде

АРХИВ ПОГОДЫ в Чарлвуде

Время (UTC), дата Ветер
(напр.,м/с)
 
Видим.   Явления Облачность Т
(С)
Тd
(С)
f
(%)
Тe
(С)
Тes
(С)
Комфортность P
(гПа)
Po
(гПа)
Тmin
(С)
Tmax
(С)
R
(мм)
R24
(мм)
S
(см)
10 10.08 ЮЗ 8-14
{16}
6000 м слаб. морось с дождем н/о +17.1 +13.6 80 +16 +16 1005.0 997.1
11 10.08 ЮЗ 7-14
{15}
7000 м ливневой дождь н/о +16.8 +14.6 87 +16 +16 1005.9 998.0
12 10.08 ЮЗ 8-15
{15}
8000 м слаб. ливневой дождь н/о +17.5 +13.7 78 +16 +16 1006.2 998.3 2
13 10.08 ЮЗ 8-13
{14}
14 км в посл. час дождь н/о +18.3 +14.6 79 +18 +18 1006.7 998.9
14 10.08 ЮЗ 8-14
{16}
11 км н/о +19.2 +13.5 70 +20 +20 1007.3 999.5
15 10.08 ЮЗ 8-14
{18}
13 км н/о +19.2 +13.5 70 +20 +20 1008.0 1000.1
16 10.08 ЮЗ 8-15
{17}
12 км н/о +19.1 +13.4 70 +20 +20 1008.6 1000.7
17 10.08 ЮЗ 8-16
{16}
15 км н/о +18.5 +12.8 69 +18 +18 1009.1 1001.2
18 10.08 ЮЗ 7-12
{14}
14 км н/о +18.0 +12.2 69 +17 +17 1009.9 1002.0 +20.1 2
19 10.08 ЮЗ 6-12
{15}
13 км н/о +17.2 +12.2 72 +16 +16 1010.7 1002.7
20 10.08 ЮЗ 6 12 км н/о +16.4 +12.5 78 +15 +15 1011.3 1003.3
21 10.08 ЮЗ 5 11 км н/о +15.9 +12.5 80 +15 +15 1011.8 1003.8
22 10.08 ЮЗ 5 11 км н/о +15.5 +12.3 81 +14 +14 1012.0 1004.0
23 10.08 ЮЗ 5 11 км н/о +15.4 +12.3 82 +14 +14 1012.0 1004.0
00 11.08 ЮЗ 5 11 км н/о +15.2 +12.3 83 +14 +14 1011.7 1003.7
01 11.08 ЮЗ 5 11 км н/о +15.0 +12.3 84 +14 +14 1011.5 1003.5
02 11.08 ЮЗ 5 12 км в посл. час дождь н/о +15.0 +12.2 83 +14 +14 1011.3 1003.4
03 11.08 ЮЗ 4 11 км в посл. час дождь н/о +14.7 +12.4 86 +13 +13 1011.6 1003.6
04 11.08 ЮЗ 4 11 км н/о +14.6 +12.4 87 +13 +13 1011.5 1003.5
05 11.08 ЮЗ 4 6000 м в посл. час дождь н/о +14.6 +12.6 88 +13 +13 1011.3 1003.3
06 11.08 ЮЗ 3 11 км в посл. час дождь н/о +15.0 +12.9 87 +14 +14 1011.5 1003.5 +14.2 0.0
07 11.08 ЮЗ 5 14 км н/о +16.6 +13.3 81 +16 +16 1011.5 1003.6
08 11.08 ЮЗ 6 21 км н/о +17.3 +12.9 75 +17 +17 1011.5 1003.6
09 11.08 ЮЗ 4 21 км в посл. час дождь н/о +17.5 +13.1 75 +17 +17 1011.7 1003.7
10 11.08 ЮЗ 6 19 км н/о +17.7 +13.5 76 +17 +17 1012.2 1004.2
11 11.08 ЮЗ 6 30 км н/о +19.3 +13.6 70 +20 +20 1012.2 1004.3
12 11.08 ЮЗ 6
{13}
15 км н/о +20.3 +12.7 62 +22 +22 комфорт 1011.6 1003.7 0.0
13 11.08 ЮЗ 6 22 км н/о +19.7 +13.1 66 +21 +21 комфорт 1011.6 1003.8
14 11.08 ЮЗ 7 17 км н/о +19.6 +11.9 61 +20 +20 1011.3 1003.5
15 11.08 ЮЗ 6 30 км н/о +19.1 +11.9 63 +20 +20 1011.3 1003.4
16 11.08 ЮЗ 5 19 км н/о +18.4 +12.5 68 +18 +18 1011.4 1003.5
17 11.08 ЮЗ 6 30 км н/о +19.0 +11.9 63 +20 +20 1011.3 1003.4
18 11.08 ЮЗ 5 30 км н/о +18.4 +11.3 63 +18 +18 1011.9 1004.0 +21.2 0.0
19 11.08 ЮЗ 5 30 км н/о +17.0 +11.3 69 +16 +16 1012.4 1004.4
20 11.08 ЮЗ 3 22 км н/о +15.5 +11.6 78 +15 +15 1013.0 1005.0
21 11.08 ЮЗ 2 22 км н/о +14.4 +11.6 83 +14 +14 1013.4 1005.4
22 11.08 ЮЗ 1 15 км н/о +13.0 +11.3 89 +13 +13 1013.7 1005.6
23 11.08 штиль 0 10 км н/о +12.2 +10.9 92 +12 +12 1013.7 1005.6
00 12.08 ЮЗ 2 11 км н/о +12.9 +12.2 96 +12 +12 1013.6 1005.5
01 12.08 ЮЗ 1 7000 м в посл. час туман н/о +11.7 +10.9 95 +11 +11 1013.5 1005.4
02 12.08 штиль 0 6000 м в посл. час туман н/о +11.1 +10.4 95 +10 +10 1013.6 1005.5
03 12.08 ЮЗ 2 6000 м в посл. час туман н/о +10.9 +10.3 96 +10 +10 1013.7 1005.5
04 12.08 ЮЗ 1 6000 м дымка н/о +10.9 +10.4 97 +10 +10 1013.6 1005.5
05 12.08 ЮЗ 1 6000 м в посл. час дождь н/о +11.6 +11.2 97 +11 +11 1013.6 1005.5
06 12.08 ЮЗ 1 10 км дымка н/о +12.0 +11.6 97 +13 +13 1013.6 1005.5 +10.4 0.0
07 12.08 Ю 1 13 км н/о +14.3 +13.9 97 +15 +15 1013.9 1005.9
08 12.08 Ю 2 23 км н/о +14.6 +14.1 97 +14 +14 1014.3 1006.2
09 12.08 ЮЗ 2 45 км н/о +16.0 +14.9 93 +16 +16 1014.2 1006.2
10 12.08 ЮЗ 2 30 км н/о +16.8 +14.0 84 +17 +17 1014.2 1006.2
11 12.08 З 2 30 км ливневой дождь н/о +15.0 +12.8 87 +15 +15 1014.1 1006.1
12 12.08 ЮЗ 1 40 км в посл. час дождь н/о +16.7 +13.4 81 +18 +18 1014.3 1006.3 0.8
13 12.08 ЮЗ 2 7000 м сильн. дождь н/о +14.4 +12.3 87 +14 +14 1014.6 1006.6
14 12.08 З 1 21 км слаб. дождь н/о +14.0 +12.6 91 +15 +15 1015.0 1007.0
15 12.08 Ю 1 40 км в посл. час дождь н/о +17.2 +13.5 79 +18 +18 1014.5 1006.5
16 12.08 СЗ 3 35 км слаб. ливневой дождь н/о +13.7 +9.6 76 +13 +13 1015.5 1007.4
17 12.08 ЮВ 1 20 км в посл. час дождь н/о +13.9 +12.1 89 +15 +15 1015.4 1007.4
18 12.08 ЮЗ 2 40 км н/о +15.7 +11.3 75 +16 +16 1015.8 1007.7 +18.3 7
19 12.08 ЮЗ 2 30 км н/о +13.3 +10.6 84 +13 +13 1016.2 1008.1
20 12.08 ЮЗ 2 30 км в посл. час дождь н/о +12.4 +11.1 92 +11 +11 1016.9 1008.8
21 12.08 З 2 45 км н/о +11.8 +10.3 91 +11 +11 1017.4 1009.2
22 12.08 З 2 45 км н/о +11.6 +10.1 91 +10 +10 1017.7 1009.5
23 12.08 З 3 40 км н/о +11.5 +8.8 83 +10 +10 1017.9 1009.8
00 13.08 З 2 45 км н/о +11.2 +8.4 83 +10 +10 1018.0 1009.9 0.0
01 13.08 З 2 40 км н/о +10.5 +8.3 86 +9 +9 1017.9 1009.8
02 13.08 ЮЗ 3 45 км н/о +10.7 +9.0 89 +9 +9 1017.9 1009.8
03 13.08 ЮЗ 2 35 км н/о +9.5 +7.9 90 +8 +8 1017.6 1009.4
04 13.08 З 1 40 км н/о +8.8 +7.9 94 +8 +8 1017.4 1009.2
05 13.08 З 2 23 км н/о +8.0 +7.3 95 +6 +6 1017.5 1009.2
06 13.08 З 2 40 км н/о +10.7 +10.1 96 +9 +9 1017.6 1009.5 +7.5 0.0
07 13.08 З 2 40 км н/о +11.8 +9.9 88 +11 +11 1018.2 1010.1
08 13.08 ЮЗ 3 40 км н/о +12.4 +10.2 86 +11 +11 1018.5 1010.4
09 13.08 З 2 40 км н/о +15.7 +11.4 76 +16 +16 1018.1 1010.1
10 13.08 З 2 50 км н/о +17.2 +10.3 64 +18 +18 1018.2 1010.3
11 13.08 З 3 45 км н/о +18.3 +9.6 57 +19 +19 1018.0 1010.1
12 13.08 ЮЗ 4 40 км н/о +19.1 +9.1 52 +20 +20 1017.9 1010.0
13 13.08 З 2 45 км н/о +18.5 +8.0 50 +19 +19 1017.6 1009.6
14 13.08 З 3 50 км н/о +18.8 +6.7 45 +19 +19 1017.5 1009.5
15 13.08 З 3 40 км н/о +20.4 +6.5 40 +22 +22 комфорт 1017.1 1009.2
16 13.08 ЮЗ 5 40 км н/о +20.3 +10.6 54 +22 +22 комфорт 1017.0 1009.1
17 13.08 ЮЗ 4 45 км н/о +19.1 +10.5 57 +20 +20 1017.0 1009.1
18 13.08 ЮЗ 4 50 км н/о +17.7 +10.0 61 +17 +17 1017.2 1009.3 +21.4
19 13.08 ЮЗ 4 45 км н/о +16.2 +9.9 66 +16 +16 1017.6 1009.6
20 13.08 ЮЗ 3 45 км н/о +14.4 +10.4 77 +14 +14 1018.1 1010.0
21 13.08 ЮЗ 2 40 км н/о +13.3 +10.4 83 +13 +13 1018.0 1009.9
22 13.08 ЮЗ 3 45 км н/о +12.5 +10.6 88 +11 +11 1017.9 1009.8
23 13.08 ЮЗ 2 40 км н/о +12.5 +10.9 90 +12 +12 1017.8 1009.7
00 14.08 ЮЗ 2 30 км н/о +12.6 +11.2 91 +12 +12 1017.8 1009.7
01 14.08 З 1 35 км н/о +12.8 +11.5 92 +13 +13 1017.5 1009.4
02 14.08 В 1 22 км н/о +12.2 +11.0 92 +13 +13 1017.2 1009.1
03 14.08 ЮЗ 2 17 км н/о +12.6 +11.8 95 +12 +12 1016.8 1008.7
04 14.08 ЮЗ 1 17 км н/о +12.6 +11.9 95 +13 +13 1016.3 1008.2
05 14.08 ЮЗ 2 22 км н/о +12.7 +12.1 96 +12 +12 1016.2 1008.1
06 14.08 ЮЗ 1 21 км н/о +13.6 +13.1 97 +14 +14 1015.8 1007.7 +12.1
07 14.08 ЮЗ 2 24 км слаб. ливневой дождь н/о +14.7 +13.9 95 +14 +14 1015.6 1007.5
08 14.08 Ю 2 18 км в посл. час дождь н/о +15.2 +13.1 87 +15 +15 1015.3 1007.3
09 14.08 Ю 2 7000 м слаб. дождь н/о +14.2 +13.0 92 +14 +14 1014.9 1006.9
10 14.08 Ю 4 7000 м слаб. морось с дождем н/о +15.1 +13.8 92 +14 +14 1014.5 1006.5
11 14.08 ЮЗ 4 3400 м сильн. ливневой дождь н/о +13.7 +12.6 93 +12 +12 1014.2 1006.1
12 14.08 Ю 3 9000 м дождь н/о +14.5 +13.8 96 +13 +13 1013.4 1005.4 8
13 14.08 Ю 4 5000 м слаб. ливневой дождь н/о +15.6 +14.9 96 +15 +15 1012.4 1004.4
14 14.08 ЮЗ 4 5000 м слаб. ливневой дождь н/о +15.9 +15.0 94 +15 +15 1011.7 1003.7
15 14.08 Ю 4 3100 м слаб. дождь н/о +15.8 +14.9 94 +15 +15 1011.0 1003.0
16 14.08 Ю 4 3500 м дождь н/о +15.8 +15.1 96 +15 +15 1010.1 1002.2
17 14.08 ЮЗ 5 2500 м сильн. морось н/о +16.2 +15.5 96 +15 +15 1009.4 1001.4
18 14.08 ЮЗ 4 2600 м морось н/о +16.5 +15.9 96 +16 +16 1008.7 1000.8 +16.5 11
19 14.08 ЮЗ 4 4900 м в посл. час дождь н/о +16.9 +16.2 96 +16 +16 1008.4 1000.5
20 14.08 ЮЗ 3 8000 м в посл. час дождь н/о +16.8 +16.2 96 +17 +17 1008.5 1000.6
21 14.08 ЮЗ 3 11 км в посл. час дождь н/о +16.8 +16.2 96 +17 +17 1008.5 1000.5
22 14.08 ЮЗ 4 9000 м дымка н/о +16.5 +15.9 96 +16 +16 1008.2 1000.3
23 14.08 ЮЗ 3 7000 м дымка н/о +16.4 +15.8 96 +16 +16 1008.6 1000.6
00 15.08 ЮЗ 4 14 км н/о +16.4 +15.7 96 +16 +16 1008.6 1000.7 0.6
01 15.08 ЮЗ 3 18 км н/о +16.2 +15.4 95 +16 +16 1008.5 1000.6
02 15.08 ЮЗ 4 18 км н/о +15.8 +14.9 94 +15 +15 1008.4 1000.5
03 15.08 ЮЗ 2 14 км н/о +14.8 +13.4 91 +14 +14 1008.8 1000.8
04 15.08 З 3 14 км н/о +14.4 +13.4 94 +13 +13 1009.0 1001.0
05 15.08 ЮЗ 4 18 км н/о +14.3 +13.3 94 +13 +13 1009.6 1001.6
06 15.08 ЮЗ 3 4700 м слаб. морось с дождем н/о +14.8 +13.9 94 +14 +14 1010.2 1002.2 +14.3 0.6
07 15.08 ЮЗ 4 15 км в посл. час дождь н/о +16.0 +14.9 93 +15 +15 1010.4 1002.5
08 15.08 ЮЗ 4 19 км в посл. час дождь н/о +16.3 +14.7 90 +16 +16 1010.9 1003.0
09 15.08 З 4 35 км н/о +17.2 +12.8 75 +17 +17 1011.3 1003.4
10 15.08 З 5 35 км н/о +18.1 +12.0 68 +18 +18 1011.7 1003.7
11 15.08 З 4 50 км н/о +19.1 +11.6 62 +20 +20 1012.1 1004.2
12 15.08 З 5 45 км н/о +19.4 +11.3 59 +20 +20 1012.6 1004.8 0.2
13 15.08 З 4 30 км н/о +19.9 +11.6 59 +22 +22 комфорт 1013.1 1005.2
14 15.08 З 4 50 км н/о +21.2 +10.8 51 +23 +23 комфорт 1013.4 1005.6
15 15.08 З 3 45 км н/о +21.3 +10.8 51 +23 +23 комфорт 1013.8 1006.0
16 15.08 З 3 50 км н/о +21.0 +10.2 50 +23 +23 комфорт 1014.0 1006.2
17 15.08 З 3 40 км н/о +19.9 +10.4 54 +22 +22 комфорт 1015.0 1007.1
18 15.08 З 4 45 км н/о +19.0 +10.7 59 +20 +20 1015.9 1007.9 +21.9 0.2
19 15.08 З 3 50 км н/о +18.1 +11.0 63 +19 +19 1016.3 1008.4
20 15.08 З 1 30 км н/о +14.9 +10.7 76 +15 +15 1016.7 1008.7
21 15.08 З 1 40 км н/о +12.8 +10.3 85 +13 +13 1017.6 1009.5
22 15.08 ЮЗ 2 40 км н/о +12.8 +10.8 88 +12 +12 1017.6 1009.5
23 15.08 З 2 30 км н/о +12.6 +10.7 88 +12 +12 1017.7 1009.6
00 16.08 З 1 17 км н/о +11.0 +9.5 90 +11 +11 1017.6 1009.5
01 16.08 штиль 0 11 км н/о +10.1 +9.1 94 +9 +9 1017.5 1009.3
02 16.08 З 1 4600 м дымка н/о +9.0 +8.2 95 +9 +9 1017.3 1009.1
03 16.08 З 1 4100 м в посл. час туман н/о +8.8 +8.1 95 +8 +8 1016.8 1008.6
04 16.08 штиль 0 8000 м в посл. час туман н/о +8.8 +8.3 97 +8 +8 1016.3 1008.1
05 16.08 З 1 13 км н/о +9.8 +9.3 97 +10 +10 1016.1 1007.9
06 16.08 штиль 0 10 км н/о +10.6 +10.2 97 +10 +10 1015.5 1007.4 +8.4
07 16.08 В 1 13 км н/о +13.3 +12.9 97 +14 +14 1015.0 1007.0
08 16.08 Ю 3 18 км н/о +16.3 +15.9 97 +16 +16 1014.6 1006.6
09 16.08 ЮЗ 4 25 км н/о +17.0 +14.2 84 +17 +17 1013.9 1006.0
10 16.08 ЮЗ 5 21 км в посл. час дождь н/о +17.4 +14.1 81 +17 +17 1013.4 1005.5
11 16.08 ЮЗ 5 26 км н/о +17.4 +12.7 74 +17 +17 1012.8 1004.9
12 16.08 ЮЗ 5 45 км слаб. ливневой дождь н/о +17.4 +12.7 74 +17 +17 1012.3 1004.4 0.0
13 16.08 ЮЗ 5 30 км слаб. ливневой дождь н/о +17.4 +13.0 75 +17 +17 1011.5 1003.6
14 16.08 ЮЗ 6-11
{13}
40 км в посл. час дождь н/о +16.9 +12.4 75 +16 +16 1011.0 1003.1
15 16.08 ЮЗ 5 29 км слаб. ливневой дождь н/о +16.7 +12.8 78 +16 +16 1010.3 1002.4
16 16.08 ЮЗ 5 13 км дождь н/о +15.8 +14.2 90 +15 +15 1009.7 1001.8
17 16.08 Ю 4 9000 м дождь н/о +15.8 +14.6 93 +15 +15 1008.8 1000.8
18 16.08 Ю 4 15 км слаб. морось с дождем н/о +16.0 +15.1 94 +15 +15 1007.7 999.8 +17.9 2
19 16.08 Ю 5 17 км слаб. дождь н/о +16.3 +15.2 93 +15 +15 1006.9 999.0
20 16.08 Ю 5 5000 м слаб. морось н/о +16.3 +14.9 91 +15 +15 1006.4 998.5
21 16.08 ЮЗ 6-11
{13}
2800 м дождь н/о +16.0 +15.1 94 +15 +15 1005.9 998.0
22 16.08 ЮЗ 6 3100 м морось н/о +16.3 +15.6 96 +15 +15 1005.4 997.4
23 16.08 ЮЗ 6 2700 м слаб. морось н/о +16.5 +15.8 96 +15 +15 1004.7 996.8
00 17.08 ЮЗ 5 3200 м сильн. дождь н/о +16.9 +16.2 96 +16 +16 1004.1 996.2 4
01 17.08 ЮЗ 4 13 км слаб. дождь н/о +17.1 +16.5 96 +17 +17 1004.0 996.1
02 17.08 ЮЗ 4 15 км в посл. час дождь н/о +17.1 +16.4 96 +17 +17 1003.9 996.0
03 17.08 ЮЗ 4 12 км в посл. час дождь н/о +17.0 +16.3 96 +17 +17 1003.9 996.0
05 17.08 ЮЗ 3 19 км н/о +16.3 +15.6 96 +16 +16 1004.2 996.3
06 17.08 ЮЗ 3 17 км н/о +16.0 +15.1 94 +15 +15 1004.4 996.5 +15.7 6
07 17.08 ЮЗ 3 22 км н/о +16.8 +15.1 90 +17 +17 1005.2 997.3
08 17.08 З 5 22 км н/о +17.1 +14.1 83 +16 +16 1005.4 997.5
09 17.08 З 2 21 км н/о +16.9 +14.0 83 +17 +17 1005.6 997.7
10 17.08 ЮЗ 5 24 км н/о +17.0 +13.2 78 +16 +16 1006.0 998.1
11 17.08 ЮЗ 5 14 км н/о +18.0 +14.0 77 +18 +18 1005.8 998.0

 

Местоположение метеостанции Чарлвуд (Великобритания): широта 51.23 долгота -0.38 высота над уровнем моря 68 м.

В архиве по умолчанию представлена погода в Чарлвуде за последнюю неделю. Архивные данные за месяц целиком и за предыдущие месяцы, начиная с января 2011 года, Вы можете получить, выбрав интересующий диапазон дат из раскрывающегося списка и нажав кнопку "Ввод!".


*Определитесь, кто Вы:
робот инопланетянин человек

Внимание! Время в таблицах - всемирное. Для получения местного времени необходимо прибавить поправку, которая равна 0 ч.

Смотрите также архив погоды в соседних городах и на ближайших метеорологических станциях:

Погода на Аэродроме Кенли (Великобритания) (22 км)
Погода в Фарнборо (Великобритания) (28 км)
Погода в Лондоне (Великобритания) (28 км)
Погода в Лондоне (Великобритания) (35 км)
Погода в Норхолте (Великобритания) (36 км)
Погода в Одихеме (Великобритания) (40 км)
Погода в Аэропорту Брайтон-Сити (Великобритания) (45 км)
Погода в Грейвзенде (Великобритания) (54 км)
Погода в Хай-Уикоме (Великобритания) (58 км)
Погода на Острове Торвер (Великобритания) (59 км)

Пояснения к столбцам:

Ветер - указаны скорость ветра в м/с - средняя за 10 мин, порывы в срок и между сроками (в фигурных скобках) и направление, откуда дует ветер: С - северный, СВ - северо-восточный, В - восточный, ЮВ - юго-восточный, Ю - южный, ЮЗ - юго-западный, З - западный, СЗ - северо-западный.
Видимость - горизонтальная дальность видимости в метрах или километрах. При видимости от 1 до 10 км при отсутствии осадков обычно наблюдается дымка, при ухудшении видимости до 1 км и менее - туман. В сухую погоду видимость может ухудшаться дымом, пылью или мглою.
Явления - указаны атмосферные явления, наблюдавшиеся в срок или в последний час перед сроком; фигурными скобками обозначены явления, наблюдавшиеся между сроками (за 1-3 часа до срока); квадратными скобками обозначены град или гололедные отложения с указанием их диаметра в мм.
Облачность - указаны через наклонную черту общая и нижняя облачность в баллах и высота нижней границы облаков в метрах; квадратными скобками обозначены формы облаков: Ci - перистые, Cs - перисто-слоистые, Cc - перисто-кучевые, Ac - высококучевые, As - высокослоистые, Sc - слоисто-кучевые, Ns - слоисто-дождевые, Cu - кучевые, Cb - кучево-дождевые. Подробнее классификацию облаков см. в Атласе облаков (PDF).
T - Температура воздуха - температура, измеренная на высоте 2 м над землей.
Td - Температура точки росы - температура, при понижении до которой содержащийся в воздухе водяной пар достигнет насыщения.
f - Относительная влажность воздуха - влажноcть воздуха, измеренная на высоте 2 м над землей.
Te - Эффективная температура - температура, которую ощущает одетый по сезону человек в тени. Характеристика душности погоды. При расчете учитывается влияние влажности воздуха и скорости ветра на теплоощущения человека.
Tes - Эффективная температура на солнце - температура, которую ощущает человек, с поправкой на солнечный нагрев. Характеристика знойности погоды. Зависит от высоты солнца над горизонтом, облачности и скорости ветра. Ночью, в пасмурную погоду, а также при ветре 12 м/с и более поправка равна нулю.
P - Атмосферное давление - приведенное к уровню моря атмосферное давление.
Po - Атмосферное давление - измеренное на уровне метеостанции атмосферное давление.
Tmin - Минимальная температура - минимум температуры воздуха на высоте 2 м над землей.
Tmax - Максимальная температура - максимум температуры воздуха на высоте 2 м над землей.
R - Количество осадков - Количество выпавших осадков за период времени, мм. При наведении курсора мыши на число - период времени, за который выпало указанное количество осадков.
R24 - Количество осадков - Количество выпавших осадков за 24 часа, мм.
S - Снежный покров - Высота снежного покрова, см. При наведении курсора мыши на число - состояние снежного покрова и степень покрытия местности в баллах.